When you browse on this site, cookies collect data to enhance your experience and personalize the content and advertising you see.
Visit our Privacy Policy to learn more. By continuing to use the site, you agree to this use of cookies and data.
  • In Lithuania
  • List of Countries
  • For 7 days
  • Water Temperature
  • Satellite Maps
  • Weather Map
  • Weather Widgets
  • user-avatar
    Login

    Hourly Weather Otradnyy

    Today, 12 December, Wednesday

    Time Temperature Precipitation Wind Pressure Humidity
    00:00 +6°C° 0 mm 1 mps 736 mmHg 96%
    01:00 +5°C° 0 mm 1 mps 737 mmHg 96%
    02:00 +5°C° 0 mm 1 mps 737 mmHg 96%
    03:00 +3°C° 0 mm 0 mps 737 mmHg 95%
    04:00 +5°C° 0 mm 1 mps 737 mmHg 94%
    05:00 +5°C° 0 mm 1 mps 737 mmHg 94%
    06:00 +5°C° 0 mm 1 mps 737 mmHg 94%
    07:00 +5°C° 0 mm 1 mps 737 mmHg 94%
    08:00 +5°C° 0 mm 1 mps 738 mmHg 93%
    09:00 +5°C° 0 mm 2 mps 738 mmHg 92%
    10:00 +6°C° 0 mm 2 mps 738 mmHg 88%
    11:00 +6°C° 0 mm 2 mps 738 mmHg 85%
    12:00 +7°C° 0 mm 3 mps 738 mmHg 81%
    13:00 +7°C° 0 mm 3 mps 737 mmHg 81%
    14:00 +7°C° 0 mm 2 mps 737 mmHg 80%
    15:00 +7°C° 0 mm 2 mps 737 mmHg 79%
    16:00 +7°C° 0.1 mm 2 mps 737 mmHg 82%
    17:00 +6°C° 0.1 mm 2 mps 738 mmHg 85%
    18:00 +6°C° 0.1 mm 2 mps 738 mmHg 88%
    19:00 +5°C° 0.2 mm 2 mps 738 mmHg 89%
    20:00 +6°C° 0.2 mm 1 mps 738 mmHg 91%
    21:00 +6°C° 0.2 mm 1 mps 738 mmHg 92%
    22:00 +5°C° 0.3 mm 2 mps 738 mmHg 92%
    23:00 +5°C° 0.3 mm 2 mps 739 mmHg 93%

    Tomorrow, 13 December, Thursday

    Time Temperature Precipitation Wind Pressure Humidity
    00:00 +3°C° 0.3 mm 3 mps 739 mmHg 93%
    01:00 +3°C° 0.8 mm 4 mps 739 mmHg 92%
    02:00 +2°C° 0.8 mm 5 mps 739 mmHg 92%
    03:00 +2°C° 0.8 mm 6 mps 740 mmHg 91%
    04:00 +2°C° 0.5 mm 6 mps 740 mmHg 89%
    05:00 +2°C° 0.5 mm 6 mps 741 mmHg 88%
    06:00 +1°C° 0.5 mm 6 mps 741 mmHg 86%
    07:00 +1°C° 0.3 mm 6 mps 741 mmHg 85%
    08:00 +1°C° 0.3 mm 6 mps 742 mmHg 84%
    09:00 +1°C° 0.3 mm 6 mps 742 mmHg 84%
    10:00 +1°C° 0 mm 6 mps 743 mmHg 81%
    11:00 +1°C° 0 mm 6 mps 743 mmHg 78%
    12:00 +2°C° 0 mm 6 mps 743 mmHg 75%
    13:00 +2°C° 0 mm 6 mps 744 mmHg 74%
    14:00 +2°C° 0 mm 6 mps 744 mmHg 72%
    15:00 +2°C° 0 mm 5 mps 744 mmHg 71%
    16:00 +1°C° 0 mm 5 mps 745 mmHg 75%
    17:00 +1°C° 0 mm 4 mps 745 mmHg 79%
    18:00 +1°C° 0 mm 3 mps 745 mmHg 82%
    19:00 +1°C° 0 mm 3 mps 746 mmHg 84%
    20:00 -1°C° 0 mm 4 mps 746 mmHg 85%
    21:00 -1°C° 0 mm 4 mps 746 mmHg 86%
    22:00 -1°C° 0 mm 4 mps 747 mmHg 86%
    23:00 -1°C° 0 mm 4 mps 747 mmHg 86%

    Day after tomorrow, 14 December, Friday

    Time Temperature Precipitation Wind Pressure Humidity
    00:00 -1°C° 0 mm 4 mps 747 mmHg 86%
    01:00 -1°C° 0 mm 4 mps 747 mmHg 87%
    02:00 -2°C° 0 mm 4 mps 747 mmHg 88%
    03:00 -1°C° 0 mm 3 mps 748 mmHg 89%
    04:00 -1°C° 0 mm 3 mps 748 mmHg 90%
    05:00 -1°C° 0 mm 3 mps 748 mmHg 90%
    06:00 -1°C° 0 mm 2 mps 748 mmHg 90%
    07:00 -1°C° 0 mm 2 mps 748 mmHg 88%
    08:00 +1°C° 0 mm 2 mps 748 mmHg 85%
    09:00 +1°C° 0 mm 2 mps 748 mmHg 82%
    10:00 +1°C° 0 mm 3 mps 748 mmHg 76%
    11:00 +3°C° 0 mm 3 mps 748 mmHg 70%
    12:00 +4°C° 0 mm 3 mps 748 mmHg 64%
    13:00 +4°C° 0 mm 3 mps 748 mmHg 64%
    14:00 +4°C° 0 mm 3 mps 748 mmHg 64%
    15:00 +4°C° 0 mm 3 mps 748 mmHg 64%
    16:00 +3°C° 0 mm 3 mps 748 mmHg 69%
    17:00 +2°C° 0 mm 3 mps 748 mmHg 73%
    18:00 +2°C° 0 mm 2 mps 748 mmHg 78%
    19:00 +1°C° 0 mm 3 mps 748 mmHg 79%
    20:00 +1°C° 0 mm 3 mps 748 mmHg 80%
    21:00 +1°C° 0 mm 3 mps 748 mmHg 81%
    22:00 0°C° 0 mm 3 mps 749 mmHg 81%
    23:00 0°C° 0 mm 3 mps 749 mmHg 81%

    15 December, Saturday

    Time Temperature Precipitation Wind Pressure Humidity
    00:00 0°C° 0 mm 3 mps 749 mmHg 81%
    01:00 0°C° 0 mm 3 mps 749 mmHg 81%
    02:00 0°C° 0 mm 3 mps 749 mmHg 82%
    03:00 0°C° 0 mm 3 mps 749 mmHg 82%
    04:00 0°C° 0 mm 3 mps 749 mmHg 83%
    05:00 0°C° 0 mm 3 mps 749 mmHg 83%
    06:00 +1°C° 0 mm 3 mps 750 mmHg 83%
    07:00 +1°C° 0 mm 3 mps 750 mmHg 81%
    08:00 +1°C° 0 mm 3 mps 750 mmHg 78%
    09:00 +1°C° 0 mm 3 mps 750 mmHg 76%
    10:00 +1°C° 0 mm 4 mps 750 mmHg 74%
    11:00 +2°C° 0 mm 5 mps 750 mmHg 71%
    12:00 +3°C° 0 mm 5 mps 750 mmHg 69%
    13:00 +3°C° 0 mm 5 mps 750 mmHg 68%
    14:00 +3°C° 0 mm 5 mps 750 mmHg 67%
    15:00 +3°C° 0 mm 5 mps 750 mmHg 65%
    16:00 +3°C° 0 mm 4 mps 750 mmHg 70%
    17:00 +2°C° 0 mm 3 mps 751 mmHg 75%
    18:00 +2°C° 0 mm 2 mps 751 mmHg 79%
    19:00 +2°C° 0 mm 2 mps 751 mmHg 81%
    20:00 +1°C° 0 mm 2 mps 751 mmHg 83%
    21:00 +1°C° 0 mm 2 mps 751 mmHg 85%
    22:00 -1°C° 0 mm 2 mps 751 mmHg 86%
    23:00 -1°C° 0 mm 2 mps 751 mmHg 88%

    16 December, Sunday

    Time Temperature Precipitation Wind Pressure Humidity
    00:00 +1°C° 0 mm 1 mps 751 mmHg 89%
    01:00 +1°C° 0 mm 1 mps 751 mmHg 89%
    02:00 0°C° 0 mm 1 mps 751 mmHg 90%
    03:00 0°C° 0 mm 1 mps 751 mmHg 90%
    04:00 0°C° 0 mm 1 mps 751 mmHg 90%
    05:00 0°C° 0 mm 1 mps 751 mmHg 90%
    06:00 0°C° 0 mm 1 mps 751 mmHg 90%
    07:00 -2°C° 0 mm 2 mps 751 mmHg 87%
    08:00 -2°C° 0 mm 2 mps 751 mmHg 85%
    09:00 -2°C° 0 mm 2 mps 752 mmHg 83%
    10:00 -1°C° 0 mm 2 mps 751 mmHg 78%
    11:00 -1°C° 0 mm 3 mps 751 mmHg 72%
    12:00 0°C° 0 mm 3 mps 751 mmHg 67%
    13:00 0°C° 0 mm 3 mps 751 mmHg 68%
    14:00 -1°C° 0 mm 4 mps 751 mmHg 68%
    15:00 -1°C° 0 mm 4 mps 751 mmHg 68%
    16:00 -2°C° 0 mm 4 mps 751 mmHg 72%
    17:00 -2°C° 0 mm 4 mps 751 mmHg 76%
    18:00 -3°C° 0 mm 4 mps 751 mmHg 80%
    19:00 -3°C° 0 mm 4 mps 751 mmHg 81%
    20:00 -5°C° 0 mm 5 mps 751 mmHg 82%
    21:00 -5°C° 0 mm 5 mps 751 mmHg 83%
    22:00 -5°C° 0 mm 5 mps 751 mmHg 83%
    23:00 -5°C° 0 mm 5 mps 751 mmHg 83%

    17 December, Monday

    Time Temperature Precipitation Wind Pressure Humidity
    00:00 -5°C° 0 mm 5 mps 751 mmHg 82%
    01:00 -5°C° 0 mm 5 mps 751 mmHg 82%
    02:00 -5°C° 0 mm 6 mps 751 mmHg 82%
    03:00 -5°C° 0 mm 6 mps 751 mmHg 81%
    04:00 -5°C° 0 mm 6 mps 750 mmHg 81%
    05:00 -5°C° 0 mm 6 mps 750 mmHg 81%
    06:00 -5°C° 0 mm 6 mps 750 mmHg 81%
    07:00 -5°C° 0 mm 6 mps 750 mmHg 80%
    08:00 -4°C° 0 mm 6 mps 750 mmHg 79%
    09:00 -4°C° 0 mm 7 mps 750 mmHg 78%
    10:00 -4°C° 0 mm 7 mps 750 mmHg 77%
    11:00 -3°C° 0 mm 7 mps 750 mmHg 76%
    12:00 -3°C° 0 mm 7 mps 750 mmHg 75%
    13:00 -3°C° 0 mm 7 mps 749 mmHg 75%
    14:00 -3°C° 0 mm 6 mps 749 mmHg 76%
    15:00 -2°C° 0 mm 6 mps 749 mmHg 76%
    16:00 -3°C° 0 mm 6 mps 749 mmHg 78%
    17:00 -3°C° 0 mm 6 mps 749 mmHg 79%
    18:00 -3°C° 0 mm 6 mps 750 mmHg 81%
    19:00 -3°C° 0 mm 6 mps 750 mmHg 82%
    20:00 -3°C° 0 mm 6 mps 749 mmHg 83%
    21:00 -3°C° 0 mm 7 mps 749 mmHg 84%
    22:00 -3°C° 0 mm 7 mps 749 mmHg 85%
    23:00 -3°C° 0 mm 6 mps 749 mmHg 86%
    Show more